Location: Newark
(33.6333°S, 78.8500°W)
Time: 18:48:49
(UTC+00:00)

Vanguard 1 Rocket - All Passes

Search period start: 22 September 2019 00:00
Search period end: 02 October 2019 00:00
Orbit: 651 x 4225 km, 34.3° (Epoch: 20 September)

Date Brightness Start Highest point End Pass type
(mag) Time Alt. Az. Time Alt. Az. Time Alt. Az.
22 Sep - 09:32:10 10° NNW 09:36:51 32° NE 09:44:08 10° E visible
22 Sep - 11:54:56 10° WNW 12:01:55 87° NNE 12:16:06 10° E daylight
22 Sep - 14:19:25 10° W 14:29:55 87° N 14:51:05 10° ENE daylight
22 Sep - 16:45:08 10° WSW 16:59:59 58° NNW 17:24:24 10° NE daylight
22 Sep - 19:15:05 10° W 19:30:56 27° NW 19:50:14 10° N daylight
23 Sep - 08:24:01 10° NNE 08:26:32 14° NE 08:29:30 10° ENE visible
23 Sep - 10:44:38 10° WNW 10:50:24 69° NNE 11:01:11 10° ESE daylight
23 Sep - 13:08:38 10° W 13:17:06 87° S 13:34:40 10° E daylight
23 Sep - 15:33:34 10° WSW 15:46:06 71° NNW 16:09:23 10° ENE daylight
23 Sep - 18:00:54 10° W 18:16:41 38° NW 18:38:53 10° NNE daylight
23 Sep - 20:42:51 10° WNW 20:47:34 11° NW 20:52:26 10° NW daylight
24 Sep - 09:34:44 10° NW 09:39:31 42° NNE 09:47:10 10° E visible
24 Sep - 11:58:03 10° W 12:04:56 88° S 12:18:48 10° E daylight
24 Sep - 14:22:31 10° W 14:32:47 82° NNW 14:53:28 10° ENE daylight
24 Sep - 16:48:19 10° W 17:02:33 50° NNW 17:25:43 10° NE daylight
24 Sep - 19:19:57 10° W 19:33:21 20° NW 19:49:20 10° N daylight
25 Sep - 08:25:35 10° N 08:29:04 20° NE 08:33:30 10° E visible
25 Sep - 10:47:40 10° WNW 10:53:20 80° NNE 11:03:57 10° E daylight
25 Sep - 13:11:45 10° W 13:20:06 90° SSE 13:37:17 10° E daylight
25 Sep - 15:36:40 10° W 15:48:48 62° NNW 16:11:11 10° NE daylight
25 Sep - 18:04:41 10° W 18:19:10 31° NW 18:39:09 10° NNE daylight
26 Sep - 09:37:31 10° NW 09:42:19 55° NNE 09:50:06 10° E visible
26 Sep - 12:01:12 10° W 12:07:58 86° S 12:21:32 10° E daylight
26 Sep - 14:25:36 10° W 14:35:37 74° NNW 14:55:42 10° ENE daylight
26 Sep - 16:51:41 10° W 17:05:09 41° NNW 17:26:40 10° NNE daylight
26 Sep - 19:26:35 10° WNW 19:35:57 14° NW 19:46:37 10° NNW daylight
27 Sep - 08:27:47 10° NNW 08:31:44 29° NE 08:36:55 10° E visible
27 Sep - 10:50:46 10° W 10:56:22 88° NNE 11:06:44 10° E daylight
27 Sep - 13:14:53 10° W 13:23:03 85° NNW 13:39:51 10° ENE daylight
27 Sep - 15:39:52 10° W 15:51:32 53° NNW 16:12:41 10° NE daylight
27 Sep - 18:09:04 10° W 18:21:47 23° NW 18:38:42 10° N daylight
28 Sep - 07:19:20 10° NNE 07:21:16 12° NE 07:23:18 10° ENE visible
28 Sep - 09:40:27 10° WNW 09:45:14 68° NNE 09:53:00 10° E visible
28 Sep - 12:04:21 10° W 12:11:01 87° S 12:24:17 10° E daylight
28 Sep - 14:28:44 10° W 14:38:28 65° NNW 14:57:43 10° NE daylight
28 Sep - 16:55:21 10° W 17:07:51 33° NNW 17:27:09 10° NNE daylight
29 Sep - 08:30:21 10° NW 08:34:32 40° NNE 08:40:06 10° E visible
29 Sep - 10:53:55 10° W 10:59:26 86° S 11:09:33 10° E daylight
29 Sep - 13:18:01 10° W 13:26:00 77° NNW 13:42:17 10° ENE daylight
29 Sep - 15:43:12 10° W 15:54:19 43° NNW 16:13:51 10° NE daylight
29 Sep - 18:14:35 10° WNW 18:24:34 17° NW 18:37:00 10° N daylight
30 Sep - 07:20:46 10° NNW 07:24:01 20° NNE 07:27:30 10° E visible
30 Sep - 09:43:29 10° WNW 09:48:15 81° NNE 09:55:53 10° E visible
30 Sep - 12:07:30 10° W 12:14:03 89° N 12:27:00 10° ENE daylight
30 Sep - 14:31:56 10° W 14:41:19 55° NNW 14:59:28 10° NE daylight
30 Sep - 16:59:27 10° W 17:10:39 25° NNW 17:27:02 10° NNE daylight
01 Oct - 08:33:08 10° NW 08:37:26 54° NNE 08:43:10 10° E visible
01 Oct - 10:57:04 10° W 11:02:31 85° S 11:12:24 10° E daylight
01 Oct - 13:21:09 10° W 13:28:56 68° NNW 13:44:33 10° ENE daylight
01 Oct - 15:46:46 10° W 15:57:10 34° NNW 16:14:36 10° NNE daylight
01 Oct - 18:24:11 10° NW 18:27:33 11° NW 18:31:10 10° NNW daylight
